This is the latest recevied weather packets stored in our database for station/object WA9AFM. If no packets are shown the sender has not sent any weather packets the latest 1 day(s).
| Time | Temp. | Humidity | Pressure | Rain* | Wind** | Luminosity | Snow |
|---|---|---|---|---|---|---|---|
| 1777996610 | 22.22° C | 80% | 997.3 hPa | 0 mm | 0.89 m/s, 80° | - | - |
| 1777995711 | 22.22° C | 80% | 997.1 hPa | 0 mm | 0 m/s | - | - |
| 1777994812 | 22.78° C | 78% | 997.1 hPa | 0 mm | 0 m/s | - | - |
| 1777993911 | 22.78° C | 78% | 996.5 hPa | 0 mm | 0 m/s | - | - |
| 1777993010 | 22.22° C | 78% | 996.4 hPa | 0 mm | 0 m/s | - | - |
| 1777992111 | 22.22° C | 78% | 996.1 hPa | 0 mm | 0 m/s | - | - |
| 1777991211 | 22.22° C | 78% | 996 hPa | 0 mm | 0 m/s | - | - |
| 1777990310 | 22.22° C | 78% | 995.9 hPa | 0 mm | 0 m/s | - | - |
| 1777989411 | 22.22° C | 78% | 995.9 hPa | 0 mm | 0 m/s | - | - |
| 1777988510 | 22.22° C | 79% | 996 hPa | 0 mm | 0 m/s | - | - |
| 1777987612 | 21.67° C | 81% | 996 hPa | 0 mm | 0 m/s | - | - |
| 1777986710 | 20.56° C | 83% | 995.9 hPa | 0 mm | 0 m/s | - | - |
| 1777986246 | 20.56° C | 85% | 995.9 hPa | 0 mm | 0 m/s | - | - |
| 1777985346 | 20° C | 85% | 995.8 hPa | 0 mm | 0 m/s | - | - |
| 1777984448 | 20° C | 84% | 995.7 hPa | 0 mm | 0 m/s | - | - |
| 1777983547 | 20° C | 84% | 995.4 hPa | 0 mm | 0 m/s | - | - |
| 1777982648 | 20° C | 84% | 994.9 hPa | 0 mm | 0 m/s | - | - |
| 1777981747 | 20° C | 83% | 994.5 hPa | 0 mm | 0 m/s | - | - |
| 1777980846 | 20° C | 83% | 994.1 hPa | 0 mm | 0 m/s | - | - |
| 1777979948 | 20.56° C | 82% | 993.9 hPa | 0 mm | 0 m/s | - | - |
| 1777979047 | 20.56° C | 81% | 993.8 hPa | 0 mm | 0 m/s | - | - |
| 1777978146 | 20.56° C | 81% | 993.6 hPa | 0 mm | 0 m/s | - | - |
| 1777977247 | 21.11° C | 80% | 993.5 hPa | 0 mm | 0 m/s | - | - |
| 1777976348 | 21.11° C | 80% | 993.6 hPa | 0 mm | 0.45 m/s, 33° | - | - |
| 1777975447 | 21.11° C | 79% | 993.7 hPa | 0 mm | 0 m/s | - | - |
* Rain latest hour (hover to see other rain measurements)
** Current wind speed in m/s (hover to see current wind gust speed)